Tracking 18942 objects as of 18-Jan-2018
HD Live streaming from Space Station
objects crossing your sky now

FLOCK 3P 33

Track FLOCK 3P 33 now!
10-day predictions
FLOCK 3P 33 is classified as:


NORAD ID: 41990
Int'l Code: 2017-008AU
Perigee: 495.6 km
Apogee: 507.2 km
Inclination: 97.5 °
Period: 94.5 minutes
Semi major axis: 6872 km
RCS: Unknown
Launch date: February 15, 2017
Source: United States (US)
Launch site: SRIHARIKOTA (SRI)
aabbcc
Your satellite tracking list
Your tracking list is empty




NASA's NSSDC Master Catalog

Two Line Element Set (TLE):
1 41990U 17008AU  18018.17193258  .00000964  00000-0  42955-4 0  9991
2 41990  97.4705  83.8604 0008446 151.2032 208.9673 15.23829614 50586
Source of the keplerian elements: AFSPC